Weather History for KDOV - February, 2014

Change the Weather History Date:

Friday, February 28, 2014

  Actual Average Record
Temperature  
Mean Temperature 17 °F -  
Max Temperature 24 °F 51 °F 72 °F (1977)
Min Temperature 10 °F 30 °F 10 °F (2014)
Degree Days  
Heating Degree Days 48    
Moisture  
Dew Point -3 °F    
Average Humidity 41    
Maximum Humidity 70    
Minimum Humidity 28    
Precipitation  
Precipitation 0.00 in - - ()
Sea Level Pressure  
Sea Level Pressure 30.37 in    
Wind  
Wind Speed 12 mph (North)    
Max Wind Speed 23 mph    
Max Gust Speed 30 mph    
Visibility 10 miles    
Events      
Averages and records for this station are not official NWS values.
T = Trace of Precipitation, MM = Missing Value Source: NWS Daily Summary

Daily Weather History Graph

Daily Weather History Graph

Search for Another Location

Airport or City:

Trip Planner

Search our weather history database for the weather conditions in past years. The results will help you decide how hot, cold, wet, or windy it might be!

Date:

Astronomy

Feb. 28, 2014 Rise Set
Actual Time 6:35 AM EST 5:53 PM EST
Civil Twilight 6:09 AM EST 6:20 PM EST
Nautical Twilight 5:38 AM EST 6:51 PM EST
Astronomical Twilight 5:07 AM EST 7:22 PM EST
Moon 5:48 AM EST (2/28) 5:27 PM EST (2/28)
Length of Visible Light 12h 11m
Length of Day
11h 17m
Waning Crescent, 1% of the Moon is Illuminated
Feb 28
Waning Crescent
Mar 1
New
Mar 8
First Quarter
Mar 16
Full
Mar 23
Last Quarter

Hourly Weather History & Observations

Time (EST) Temp. Windchill Dew Point Humidity Pressure Visibility Wind Dir Wind Speed Gust Speed Precip Events Conditions
12:58 AM 16.3 °F -1.6 °F -5.3 °F 38% 30.17 in 10.0 mi NNW 23.0 mph 29.9 mph N/A   Clear
1:58 AM 14.5 °F -3.2 °F -7.1 °F 38% 30.20 in 10.0 mi NNW 20.7 mph 29.9 mph N/A   Clear
2:58 AM 13.5 °F -1.5 °F -8.1 °F 38% 30.23 in 10.0 mi NNW 13.8 mph 26.5 mph N/A   Clear
3:58 AM 12.6 °F -3.8 °F -8.9 °F 38% 30.26 in 10.0 mi NNW 16.1 mph - N/A   Clear
4:58 AM 11.8 °F -2.3 °F -10.1 °F 37% 30.30 in 10.0 mi NNW 11.5 mph - N/A   Clear
5:58 AM 11.1 °F -3.9 °F -9.6 °F 39% 30.33 in 10.0 mi NW 12.7 mph - N/A   Clear
6:58 AM 10.9 °F -3.4 °F -9.8 °F 39% 30.36 in 10.0 mi NW 11.5 mph - N/A   Clear
7:58 AM 13.1 °F 0.1 °F -8.7 °F 37% 30.39 in 10.0 mi NW 10.4 mph - N/A   Clear
8:58 AM 15.8 °F 3.4 °F -6.2 °F 37% 30.42 in 10.0 mi NNW 10.4 mph - N/A   Clear
9:58 AM 17.4 °F 7.1 °F -4.5 °F 38% 30.43 in 10.0 mi North 8.1 mph - N/A   Clear
10:58 AM 20.1 °F 7.5 °F -4.0 °F 35% 30.43 in 10.0 mi NNW 12.7 mph 17.3 mph N/A   Clear
11:58 AM 21.4 °F 12.8 °F -3.8 °F 33% 30.44 in 10.0 mi North 6.9 mph - N/A   Clear
12:58 PM 21.9 °F 17.2 °F -4.0 °F 32% 30.41 in 10.0 mi Variable 3.5 mph - N/A   Clear
1:58 PM 24.1 °F 18.2 °F -5.3 °F 28% 30.39 in 10.0 mi East 4.6 mph - N/A   Clear
2:58 PM 24.6 °F 17.7 °F -0.0 °F 34% 30.38 in 10.0 mi Variable 5.8 mph - N/A   Clear
3:58 PM 23.9 °F 15.8 °F -1.7 °F 33% 30.39 in 10.0 mi East 6.9 mph - N/A   Clear
4:58 PM 24.1 °F 18.2 °F -1.1 °F 33% 30.39 in 10.0 mi NE 4.6 mph - N/A   Clear
5:58 PM 20.8 °F 16.0 °F 0.5 °F 41% 30.40 in 10.0 mi ENE 3.5 mph - N/A   Clear
6:58 PM 19.8 °F - 2.8 °F 48% 30.40 in 10.0 mi NNE 2.3 mph - N/A   Clear
7:58 PM 20.3 °F - 2.5 °F 46% 30.40 in 10.0 mi Calm Calm - N/A   Clear
8:58 PM 20.7 °F - 3.2 °F 47% 30.41 in 10.0 mi NNW 2.3 mph - N/A   Clear
9:58 PM 18.9 °F - 4.5 °F 54% 30.41 in 10.0 mi Calm Calm - N/A   Clear
10:58 PM 18.5 °F 13.3 °F 10.2 °F 70% 30.43 in 10.0 mi SSW 3.5 mph - N/A   Clear
11:58 PM 18.1 °F - 9.1 °F 68% 30.43 in 10.0 mi Calm Calm - N/A   Clear